sat.trackr.live / text

‹ back to catalog

TECHDEMOSAT-1 (TDS-1)

NORAD 40076 · 2014-037H

PAYLOAD ACTIVE UNKNOWN

§ Identity

Operator
Country
UK
Launch date
2014-07-08
Launch site
TYMSC
Launch vehicle
Mass (kg)
RCS (m²)
0.52

Purposes: tech_demo

External: N2YO · Heavens-Above · Gunter

§ Orbital elements

Epoch: 2026-05-24T22:43:20.081280Z

Period
95.18 min
Inclination
98.3814°
Eccentricity
0.0006094
Mean motion
15.12872787 rev/d
Perigee alt
523.2 km
Apogee alt
531.7 km
Semi-major
6,905.6 km
B*
4.2091e-4
RAAN
134.8649°
Arg perigee
4.9095°
Mean anomaly
355.2192°
Rev number
64,471

§ Raw data

TECHDEMOSAT-1 (TDS-1)1 40076U 14037H   26144.94676020  .00007332  00000+0  42091-3 0  99962 40076  98.3814 134.8649 0006094   4.9095 355.2192 15.12872787644710

JSON: /api/v1/satellites/40076 · /tle

For live sub-satellite position, see the globe view (requires WebGL).

§ Visibility from observer

Set your observer location to see the next 7 days of passes ≥ 10°. The values pass through the URL so the page stays shareable.

No JS? Fill the form by hand. The geolocation button needs JavaScript.